Location: Tel Aviv
(32.0670°N, 34.7670°E)
Time: 01:51:17
(UTC+02:00)

Tiros 1 despin weight - All Passes

Search period start: 23 January 2022 00:00
Search period end: 02 February 2022 00:00
Orbit: 592 x 641 km, 48.2° (Epoch: 22 January)

Date Brightness Start Highest point End Pass type
(mag) Time Alt. Az. Time Alt. Az. Time Alt. Az.
23 Jan - 00:30:54 10° WNW 00:35:28 54° SW 00:40:01 10° SSE night (unlit)
23 Jan - 14:38:03 10° SE 14:38:31 10° SE 14:39:00 10° ESE daylight
23 Jan - 16:14:55 10° SW 16:19:26 83° SE 16:24:02 10° NE daylight
23 Jan - 17:57:54 10° WNW 18:01:24 21° NNW 18:04:57 10° NNE visible
23 Jan - 19:43:20 10° NNW 19:44:23 11° N 19:45:27 10° N visible
23 Jan - 21:24:55 10° NNW 21:27:36 15° NNE 21:30:17 10° NE night (unlit)
23 Jan - 23:05:28 10° NW 23:10:01 49° NE 23:14:33 10° ESE night (unlit)
24 Jan - 00:47:31 10° WNW 00:51:21 25° SW 00:55:09 10° S night (unlit)
24 Jan - 14:50:41 10° S 14:54:16 23° SE 14:57:53 10° ENE daylight
24 Jan - 16:31:10 10° WSW 16:35:32 49° NW 16:40:01 10° NE daylight
24 Jan - 18:15:21 10° NW 18:17:57 15° NNW 18:20:34 10° NNE visible
24 Jan - 20:00:05 10° N 20:01:09 11° N 20:02:12 10° NNE visible
24 Jan - 21:40:33 10° NNW 21:44:08 21° NNE 21:47:43 10° ENE night (unlit)
24 Jan - 23:21:25 10° NW 23:26:08 85° SW 23:30:48 10° SE night (unlit)
25 Jan - 01:05:41 10° WSW 01:07:06 11° SW 01:08:31 10° SW night (unlit)
25 Jan - 15:05:47 10° SSW 15:10:07 51° SE 15:14:33 10° ENE daylight
25 Jan - 16:47:55 10° W 16:51:49 28° NNW 16:55:47 10° NNE daylight
25 Jan - 18:33:03 10° NNW 18:34:37 11° N 18:36:11 10° N visible
25 Jan - 20:15:50 10° NNW 20:17:52 13° NNE 20:19:54 10° NE visible
25 Jan - 21:56:15 10° NW 22:00:31 34° NNE 22:04:47 10° E night (unlit)
25 Jan - 23:37:43 10° WNW 23:42:05 40° SW 23:46:27 10° SSE night (unlit)
26 Jan - 13:42:41 10° SSE 13:45:05 14° SE 13:47:31 10° E daylight
26 Jan - 15:21:39 10° SW 15:26:08 75° NW 15:30:42 10° NE daylight
26 Jan - 17:05:08 10° WNW 17:08:16 18° NNW 17:11:26 10° NNE daylight
26 Jan - 18:50:35 10° N 18:51:21 10° N 18:52:07 10° N visible
26 Jan - 20:31:27 10° NNW 20:34:29 17° NNE 20:37:31 10° ENE visible
26 Jan - 22:12:05 10° NW 22:16:44 63° NE 22:21:22 10° ESE night (unlit)
26 Jan - 23:54:40 10° W 23:57:55 19° SW 00:01:10 10° S night (unlit)
27 Jan - 13:56:55 10° SSW 14:00:52 31° SE 14:04:53 10° ENE daylight
27 Jan - 15:38:06 10° WSW 15:42:18 38° NNW 15:46:35 10° NE daylight
27 Jan - 17:22:42 10° NW 17:24:52 13° NNW 17:27:01 10° NNE daylight
27 Jan - 19:06:44 10° N 19:08:05 11° N 19:09:27 10° NNE visible
27 Jan - 20:47:06 10° NNW 20:50:57 25° NNE 20:54:50 10° E night (unlit)
27 Jan - 22:28:09 10° WNW 22:32:47 64° SW 22:37:24 10° SE night (unlit)
28 Jan - 14:12:20 10° SW 14:16:46 70° SE 14:21:17 10° NE daylight
28 Jan - 15:55:03 10° W 15:58:38 23° NNW 16:02:17 10° NNE daylight
28 Jan - 17:40:28 10° NNW 17:41:33 11° N 17:42:38 10° N visible
28 Jan - 19:22:22 10° NNW 19:24:46 14° NNE 19:27:11 10° NE visible
28 Jan - 21:02:49 10° NW 21:07:16 42° NE 21:11:43 10° ESE night (unlit)
28 Jan - 22:44:37 10° WNW 22:48:41 30° SW 22:52:44 10° SSE night (unlit)
29 Jan - 12:48:28 10° S 12:51:39 20° SE 12:54:53 10° E daylight
29 Jan - 14:28:27 10° WSW 14:32:50 56° NW 14:37:19 10° NE daylight
29 Jan - 16:12:24 10° NW 16:15:08 16° NNW 16:17:54 10° NNE daylight
29 Jan - 17:57:34 10° N 17:58:17 10° N 17:59:00 10° NNE visible
29 Jan - 19:37:58 10° NNW 19:41:20 19° NNE 19:44:42 10° ENE visible
29 Jan - 21:18:44 10° NW 21:23:24 82° NE 21:28:05 10° SE night (unlit)
29 Jan - 23:02:08 10° W 23:04:27 14° SW 23:06:48 10° SSW night (unlit)
30 Jan - 13:03:17 10° SSW 13:07:28 43° SE 13:11:44 10° ENE daylight
30 Jan - 14:45:06 10° W 14:49:03 30° NNW 14:53:06 10° NNE daylight
30 Jan - 16:30:06 10° NNW 16:31:46 12° N 16:33:27 10° N daylight
30 Jan - 18:13:18 10° N 18:15:01 12° N 18:16:43 10° NNE visible
30 Jan - 19:53:37 10° NNW 19:57:43 30° NNE 20:01:51 10° E visible
30 Jan - 21:34:55 10° WNW 21:39:23 47° SW 21:43:52 10° SSE night (unlit)
31 Jan - 11:40:57 10° SSE 11:42:29 12° SE 11:44:01 10° ESE daylight
31 Jan - 13:19:00 10° SW 13:23:26 87° NW 13:27:58 10° NE daylight
31 Jan - 15:02:12 10° WNW 15:05:27 19° NNW 15:08:45 10° NNE daylight
31 Jan - 16:47:54 10° N 16:48:29 10° N 16:49:03 10° N daylight
31 Jan - 18:28:52 10° NNW 18:31:38 15° NNE 18:34:24 10° NE visible
31 Jan - 20:09:25 10° NW 20:13:57 54° NE 20:18:32 10° ESE visible
31 Jan - 21:51:38 10° W 21:55:14 22° SW 21:58:50 10° S night (unlit)
01 Feb - 11:54:32 10° S 11:58:13 26° SE 12:01:57 10° ENE daylight
01 Feb - 13:35:19 10° WSW 13:39:33 43° NW 13:43:52 10° NE daylight
01 Feb - 15:19:43 10° NW 15:22:01 14° NNW 15:24:19 10° NNE daylight
01 Feb - 17:04:16 10° N 17:05:13 11° N 17:06:09 10° NNE daylight
01 Feb - 18:44:29 10° NNW 18:48:07 23° NNE 18:51:48 10° ENE visible
01 Feb - 20:25:24 10° NW 20:30:02 76° SW 20:34:42 10° SE visible
